| time (UTC) | temp C | wind direction | speed KPH | gust KPH | rain 1hr cm | rain 24hr cm | rain mn cm | humidity % | barometer mb |
| 20260502161517 | 25 | 10 | 22.5 | 35.4 | 0.00 | 0.00 | 0.00 | 1 | 1011.5 |
| 20260502151510 | 22 | 27 | 24.1 | 35.4 | 0.00 | 0.00 | 0.00 | 3 | 1011.1 |
| 20260502123013 | 18 | 15 | 19.3 | 30.6 | 0.00 | 0.00 | 0.00 | 6 | 1009.9 |
| 20260502121511 | 18 | 36 | 16.1 | 25.7 | 0.00 | 0.00 | 0.00 | 6 | 1009.9 |
| 20260502114519 | 19 | 22 | 20.9 | 33.8 | 0.00 | 0.00 | 0.00 | 6 | 1009.8 |
| 20260502113010 | 19 | 23 | 20.9 | 32.2 | 0.00 | 0.00 | 0.00 | 5 | 1009.8 |
| 20260502111506 | 20 | 22 | 20.9 | 33.8 | 0.00 | 0.00 | 0.00 | 5 | 1009.9 |
| 20260502110021 | 19 | 19 | 17.7 | 29.0 | 0.00 | 0.00 | 0.00 | 6 | 1009.7 |
| 20260502104511 | 19 | 41 | 17.7 | 27.4 | 0.00 | 0.00 | 0.00 | 6 | 1009.7 |
| 20260502103023 | 20 | 22 | 20.9 | 30.6 | 0.00 | 0.00 | 0.00 | 5 | 1009.8 |
| 20260502101514 | 20 | 19 | 19.3 | 30.6 | 0.00 | 0.00 | 0.00 | 5 | 1009.9 |
| 20260502091516 | 19 | 41 | 17.7 | 22.5 | 0.00 | 0.00 | 0.00 | 4 | 1009.9 |
| 20260502071510 | 18 | 44 | 14.5 | 19.3 | 0.00 | 0.00 | 0.00 | 2 | 1010.2 |
| 20260502070037 | 18 | 45 | 11.3 | 17.7 | 0.00 | 0.00 | 0.00 | 2 | 1010.2 |
| 20260502064513 | 17 | 30 | 8.0 | 16.1 | 0.00 | 0.00 | 0.00 | 2 | 1010.2 |
| 20260502063003 | 18 | 43 | 9.7 | 14.5 | 0.00 | 0.00 | 0.00 | 2 | 1010.1 |
| 20260502061517 | 18 | 38 | 11.3 | 16.1 | 0.00 | 0.00 | 0.00 | 2 | 1010.0 |
| 20260502060027 | 18 | 55 | 9.7 | 17.7 | 0.00 | 0.00 | 0.00 | 2 | 1009.7 |
| 20260502054538 | 19 | 42 | 9.7 | 16.1 | 0.00 | 0.00 | 0.00 | 1 | 1009.7 |
| 20260502053018 | 20 | 33 | 11.3 | 19.3 | 0.00 | 0.00 | 0.00 | 1 | 1009.7 |
| 20260502051512 | 21 | 35 | 8.0 | 14.5 | 0.00 | 0.00 | 0.00 | 1 | 1009.6 |
| 20260502050015 | 22 | 349 | 11.3 | 17.7 | 0.00 | 0.00 | 0.00 | 1 | 1009.3 |
| 20260502044518 | 23 | 355 | 9.7 | 20.9 | 0.00 | 0.00 | 0.00 | 1 | 1009.3 |
| 20260502043010 | 23 | 327 | 9.7 | 19.3 | 0.00 | 0.00 | 0.00 | 1 | 1009.2 |
| 20260502041520 | 23 | 315 | 6.4 | 20.9 | 0.00 | 0.00 | 0.00 | 1 | 1008.9 |
| 20260502040039 | 23 | 336 | 6.4 | 19.3 | 0.00 | 0.00 | 0.00 | 1 | 1008.8 |
| 20260502034510 | 23 | 319 | 11.3 | 19.3 | 0.00 | 0.00 | 0.00 | 1 | 1008.6 |
| 20260502033028 | 23 | 317 | 9.7 | 20.9 | 0.00 | 0.00 | 0.00 | 1 | 1008.3 |
| 20260502031514 | 23 | 355 | 11.3 | 22.5 | 0.00 | 0.00 | 0.00 | 1 | 1008.0 |
| 20260502030009 | 23 | 325 | 6.4 | 17.7 | 0.00 | 0.00 | 0.00 | 1 | 1007.8 |
| 20260502024521 | 24 | 318 | 17.7 | 24.1 | 0.00 | 0.00 | 0.00 | 1 | 1007.7 |
| 20260502023027 | 25 | 326 | 11.3 | 27.4 | 0.00 | 0.00 | 0.00 | 1 | 1007.6 |
| 20260502021521 | 25 | 314 | 14.5 | 22.5 | 0.00 | 0.00 | 0.00 | 1 | 1007.5 |
| 20260502020019 | 25 | 319 | 17.7 | 27.4 | 0.00 | 0.00 | 0.00 | 1 | 1007.3 |
| 20260502014510 | 26 | 34 | 11.3 | 22.5 | 0.00 | 0.00 | 0.00 | 1 | 1007.1 |
| 20260502013022 | 26 | 333 | 14.5 | 24.1 | 0.00 | 0.00 | 0.00 | 1 | 1007.2 |
| 20260502011514 | 26 | 336 | 17.7 | 25.7 | 0.00 | 0.00 | 0.00 | 1 | 1007.0 |
| 20260502010009 | 27 | 306 | 17.7 | 29.0 | 0.00 | 0.00 | 0.00 | 1 | 1007.1 |
| 20260502004521 | 27 | 317 | 19.3 | 29.0 | 0.00 | 0.00 | 0.00 | 1 | 1007.2 |
| 20260502003013 | 27 | 333 | 22.5 | 37.0 | 0.00 | 0.00 | 0.00 | 1 | 1007.2 |
| 20260502001510 | 28 | 294 | 14.5 | 30.6 | 0.00 | 0.00 | 0.00 | 1 | 1007.1 |
| 20260502000032 | 28 | 281 | 16.1 | 29.0 | 0.00 | 0.00 | 0.00 | 1 | 1007.1 |
| 20260501234517 | 28 | 297 | 14.5 | 25.7 | 0.00 | 0.00 | 0.00 | 1 | 1007.2 |
| 20260501233009 | 28 | 314 | 16.1 | 33.8 | 0.00 | 0.00 | 0.00 | 1 | 1007.0 |
| 20260501231527 | 28 | 281 | 12.9 | 32.2 | 0.00 | 0.00 | 0.00 | 1 | 1006.9 |
| 20260501230031 | 28 | 292 | 16.1 | 30.6 | 0.00 | 0.00 | 0.00 | 1 | 1006.9 |
| 20260501224508 | 28 | 281 | 16.1 | 29.0 | 0.00 | 0.00 | 0.00 | 1 | 1007.1 |
| 20260501223022 | 28 | 313 | 19.3 | 32.2 | 0.00 | 0.00 | 0.00 | 1 | 1007.1 |
| 20260501221515 | 28 | 296 | 17.7 | 32.2 | 0.00 | 0.00 | 0.00 | 1 | 1007.2 |
| 20260501220009 | 28 | 304 | 12.9 | 35.4 | 0.00 | 0.00 | 0.00 | 1 | 1007.4 |
| 20260501214521 | 28 | 281 | 8.0 | 30.6 | 0.00 | 0.00 | 0.00 | 1 | 1007.5 |
| 20260501213016 | 28 | 321 | 16.1 | 29.0 | 0.00 | 0.00 | 0.00 | 1 | 1007.6 |
| 20260501211508 | 28 | 289 | 19.3 | 40.2 | 0.00 | 0.00 | 0.00 | 1 | 1007.9 |
| 20260501210018 | 28 | 265 | 12.9 | 29.0 | 0.00 | 0.00 | 0.00 | 1 | 1007.9 |
| 20260501204512 | 28 | 318 | 14.5 | 27.4 | 0.00 | 0.00 | 0.00 | 1 | 1008.1 |
| 20260501203018 | 28 | 277 | 11.3 | 30.6 | 0.00 | 0.00 | 0.00 | 1 | 1008.2 |
| 20260501201514 | 28 | 292 | 12.9 | 25.7 | 0.00 | 0.00 | 0.00 | 1 | 1008.2 |
| 20260501200007 | 27 | 284 | 11.3 | 24.1 | 0.00 | 0.00 | 0.00 | 1 | 1008.2 |
| 20260501194522 | 27 | 315 | 9.7 | 22.5 | 0.00 | 0.00 | 0.00 | 1 | 1008.4 |
| 20260501193011 | 27 | 273 | 4.8 | 25.7 | 0.00 | 0.00 | 0.00 | 1 | 1008.5 |
| 20260501191521 | 27 | 322 | 12.9 | 25.7 | 0.00 | 0.00 | 0.00 | 1 | 1008.6 |
| 20260501190015 | 27 | 328 | 17.7 | 27.4 | 0.00 | 0.00 | 0.00 | 1 | 1008.8 |
| 20260501184507 | 29 | 51 | 8.0 | 24.1 | 0.00 | 0.00 | 0.00 | 1 | 1008.9 |
| 20260501183019 | 27 | 44 | 6.4 | 20.9 | 0.00 | 0.00 | 0.00 | 1 | 1009.1 |
| 20260501181516 | 27 | 33 | 17.7 | 27.4 | 0.00 | 0.00 | 0.00 | 1 | 1009.3 |
| 20260501180023 | 27 | 32 | 9.7 | 24.1 | 0.00 | 0.00 | 0.00 | 1 | 1009.3 |
| 20260501174515 | 26 | 5 | 11.3 | 22.5 | 0.00 | 0.00 | 0.00 | 1 | 1009.3 |
| 20260501173016 | 26 | 13 | 19.3 | 29.0 | 0.00 | 0.00 | 0.00 | 1 | 1009.4 |
| 20260501171524 | 25 | 306 | 14.5 | 20.9 | 0.00 | 0.00 | 0.00 | 1 | 1009.5 |
| 20260501170011 | 25 | 17 | 12.9 | 24.1 | 0.00 | 0.00 | 0.00 | 1 | 1009.6 |
| 20260501164506 | 24 | 316 | 16.1 | 25.7 | 0.00 | 0.00 | 0.00 | 2 | 1009.6 |
| 20260501163019 | 24 | 30 | 17.7 | 25.7 | 0.00 | 0.00 | 0.00 | 2 | 1009.6 |